Regional Weather Roundup
Issued by NWS

Home | Current Version | Previous Version | Graphics & Text | Print | Product List | Glossary On
Versions: 1 2 3 4 5 6 7 8 9 10 11 12 13 14 15 16 17 18 19 20 21 22 23 24 25 26 27 28 29 30 31 32 33 34 35 36 37 38 39 40 41 42 43 44 45 46 47 48 49 50
000
ASUS43 KMPX 250501
RWRMN
WEATHER ROUNDUP FOR MINNESOTA
NATIONAL WEATHER SERVICE TWIN CITIES/CHANHASSEN MN
1200 AM CDT FRI JUL 25 2014


NOTE: "FAIR" INDICATES FEW OR NO CLOUDS BELOW 12,000 FEET WITH NO
SIGNIFICANT WEATHER AND/OR OBSTRUCTIONS TO VISIBILITY. N/A MEANS
CURRENT SKY AND/OR WEATHER CONDITIONS ARE NOT AVAILABLE.

MNZ060>063-068>070-250600-
   Twin Cities Metro

CITY           SKY/WX    TMP DP  RH WIND       PRES   REMARKS
TWIN CITIES    MOCLDY    71  58  63 S9        29.93F
ST PAUL        CLEAR     70  59  68 S8        29.94F
CRYSTAL        CLEAR     71  59  65 S10       29.90F
BLAINE         CLEAR     70  63  78 S8        29.91F
LAKEVILLE      PTCLDY    63  57  82 SE5       29.95F
EDEN PRAIRIE   PTCLDY    67  60  78 SE9       29.92F
SOUTH ST PAUL  CLEAR     69  59  69 S6        29.95S
LAKE ELMO      FAIR      64  61  88 S7        29.96F
$$
MNZ001>005-007-008-013>017-022>024-027-028-250600-
   Northwest Minnesota

CITY           SKY/WX    TMP DP  RH WIND       PRES   REMARKS
BEMIDJI        PTCLDY    64  58  82 SE6       29.87S
HALLOCK        MOCLDY    68  63  83 CALM      29.81F
ROSEAU         MOCLDY    64  59  82 SE7       29.84F
WARROAD        PTCLDY    64  61  88 CALM      29.88R
THIEF RVR FALL CLOUDY    66  59  77 SE7       29.84S
CROOKSTON      CLOUDY    68  61  77 SE7       29.81F
FOSSTON        MOCLDY    64  55  72 SE7       29.85F
DETROIT LAKES  PTCLDY    68  61  77 SE12      29.84F
MOORHEAD       PTCLDY    70  64  83 SE6       29.80S
PARK RAPIDS    MOCLDY    67  59  75 SE8       29.86F
$$
MNZ006-009>011-018-025>026-250600-
   North Central Minnesota

CITY           SKY/WX    TMP DP  RH WIND       PRES   REMARKS
BAUDETTE       PTCLDY    65  59  81 CALM      29.88R
FLAG ISLAND    CLEAR     70  63  78 S9        29.85S
INTL FALLS     CLEAR     57  56  96 CALM      29.88R
WASKISH        CLOUDY    63  61  94 NE5       29.88R
BIG FORK       CLEAR     61  55  82 CALM      29.90R
LONGVILLE      CLOUDY    66  61  82 S6        29.88S
GRAND RAPIDS   CLOUDY    64  57  77 S5        29.90R
CRANE LAKE     CLEAR     54  52  94 CALM      29.91R
ORR            CLEAR     59  54  82 CALM      29.89R
COOK           CLEAR     57  57 100 CALM      29.92R
$$
MNZ012-019>021-037-250600-
   Northeast Minnesota

CITY           SKY/WX    TMP DP  RH WIND       PRES   REMARKS
DULUTH         MOCLDY    65  56  72 SE6       29.91S
ELY            PTCLDY    59  55  88 CALM      29.92R
HIBBING        CLEAR     58  55  90 CALM      29.90R
EVELETH        PTCLDY    59  55  88 CALM      29.93R
DULUTH HARBOR  MOCLDY    63  59  88 NE6       29.90S
TWO HARBORS    CLOUDY    61  55  82 CALM      29.90S
SILVER BAY     CLOUDY    55  55 100 CALM      29.91S
GRAND MARAIS     N/A     55  50  83 NE3       29.92F
G MARAIS ARPRT PTCLDY    52  48  87 CALM      29.96F
$$
MNZ029>031-032-039>041-046>048-054>057-064-250600-
   West Central Minnesota

CITY           SKY/WX    TMP DP  RH WIND       PRES   REMARKS
FERGUS FALLS   PTCLDY    68  57  68 E8G16     29.81R
WHEATON        MOCLDY    64  59  82 SE18      29.78F
MORRIS         PTCLDY    64  61  88 SE15G21   29.80F
ALEXANDRIA     PTCLDY    66  60  81 SE12      29.84F
ELBOW LAKE     FAIR      66  60  81 SE15G29   29.79R
WADENA         PTCLDY    64  61  88 SE9       29.85F
GLENWOOD       MOCLDY    64  61  88 SE17      29.84F
APPLETON       MOCLDY    66  59  77 SE15      29.81F
BENSON         MOCLDY    66  61  82 S15       29.83F
ORTONVILLE     MOCLDY    66  59  77 SE9       29.80F
MADISON        MOCLDY    70  63  78 E7        29.81F
WILLMAR        FAIR      66  61  82 SE12      29.88F
$$
MNZ033>034-036-042>043-049>051-058-059-250600-
   Central Minnesota

CITY           SKY/WX    TMP DP  RH WIND       PRES   REMARKS
ST CLOUD       PTCLDY    68  60  75 SE8       29.88F
SAUK CENTRE    FAIR      64  60  88 S15       29.83F
PAYNESVILLE    CLOUDY    65  59  83 E12       29.87F
AITKIN         MOCLDY    66  61  82 S3        29.89S
PINE RIVER     MOCLDY    64  59  82 SE5       29.91F
BRAINERD       MOCLDY    64  60  87 S6        29.90R
STAPLES        MOCLDY    66  61  82 SE3       29.87F
LONG PRAIRIE   FAIR      63  59  88 E7        29.87R
LITTLE FALLS   MOCLDY    64  59  82 E6        29.90R
LITCHFIELD     MOCLDY    66  63  88 SE8       29.90F
BUFFALO        CLEAR     67  58  73 SE5       29.91F
MAPLE LAKE     PTCLDY    67  62  83 SE3       29.90F
$$
MNZ037-044-045-052-053-250600-
   East Central Minnesota

CITY           SKY/WX    TMP DP  RH WIND       PRES   REMARKS
PRINCETON        N/A     66  63  88 SE6       29.91F
MORA           CLEAR     64  61  88 CALM      29.92F
CAMBRIDGE      CLEAR     70  59  68 S3        29.90F
RUSH CITY      CLEAR     66  60  80 S3        29.91F
MOOSE LAKE     PTCLDY    68  59  73 S6        29.89S
HINCKLEY       FAIR      66  61  82 CALM      29.91F
CLOQUET        PTCLDY    63  55  77 CALM      29.92R
MCGREGOR       PTCLDY    66  59  77 S7        29.90S
$$
MNZ071>073-080-081-089-090-097-098-250600-
   Southwest Minnesota

CITY           SKY/WX    TMP DP  RH WIND       PRES   REMARKS
MONTEVIDEO     CLOUDY    66  61  82 S13       29.84F
GRANITE FALLS  CLOUDY    65  59  80 E13       29.85F
CANBY          MOCLDY    66  62  86 SE6       29.82F
MARSHALL       MOCLDY    64  59  82 SE13      29.82F
REDWOOD FALLS  CLOUDY    66  61  84 SE14      29.86F
OLIVIA         MOCLDY    64  59  82 SE12      29.86F
PIPESTONE      MOCLDY    64  63  94 SE9       29.83F
WINDOM         CLOUDY    63  59  88 E9        29.89F
WORTHINGTON    MOCLDY    64  61  88 SE7       29.89F
JACKSON        CLOUDY    63  59  88 E10       29.91F
TRACY          CLOUDY    66  62  85 S8        29.86F
SLAYTON        MOCLDY    63  62  95 CALM      29.88F
$$
MNZ065>067-074>077-082>085-091>093-250600-
   South Central Minnesota

CITY           SKY/WX    TMP DP  RH WIND       PRES   REMARKS
MANKATO        CLOUDY    66  57  72 SE10      29.93F
NEW ULM        MOCLDY    66  63  88 SE12      29.90F
ST JAMES       CLOUDY    66  61  82 E10       29.92F
FAIRMONT       CLOUDY    63  57  82 E12       29.92F
GLENCOE        PTCLDY    66  58  74 SE8       29.90F
FARIBAULT      PTCLDY    68  57  68 E5        29.96F
OWATONNA       MOCLDY    66  57  72 E7        29.96F
WASECA         MOCLDY    63  54  72 SE7       29.96F
ALBERT LEA     CLOUDY    68  61  77 SE12      29.97F
$$
MNZ078>079-086>088-094>096-250600-
   Southeast Minnesota

CITY           SKY/WX    TMP DP  RH WIND       PRES   REMARKS
ROCHESTER      CLEAR     63  58  83 SE6       30.01F
RED WING       PTCLDY    72  59  64 SW6       29.96S
STANTON        PTCLDY    66  58  77 SW3       29.96S
DODGE CENTER   PTCLDY    61  57  88 SE6       29.99F
WINONA         PTCLDY    66  63  88 CALM      29.99S
AUSTIN         MOCLDY    63  59  88 E5        29.98F
PRESTON        CLEAR     64  62  94 SE3       30.03S
$$
ABBREVIATIONS USED IN REMARKS
   TC - TEMPERATURES IN CELSIUS
  WCI - WIND CHILL INDEX
   HX - HEAT INDEX
  VSB - VISIBILITY
$$



USA.gov is the U.S. government's official web portal to all federal, state and local government web resources and services.